When you browse on this site, cookies collect data to enhance your experience and personalize the content and advertising you see.
Visit our Privacy Policy to learn more. By continuing to use the site, you agree to this use of cookies and data.
  • In Netherlands
  • List of Countries
  • For 7 days
  • Water Temperature
  • Satellite Maps
  • Weather Map
  • Weather Widgets
  • user-avatar
    Login

    Hourly Weather Pyrzyce

    Today, 26 June, Wednesday

    Time Temperature Precipitation Wind Pressure Humidity
    00:00 +24°C° 0 mm 3 mps 762 mmHg 85%
    01:00 +23°C° 0 mm 2 mps 762 mmHg 83%
    02:00 +23°C° 0 mm 2 mps 761 mmHg 82%
    03:00 +23°C° 0 mm 2 mps 761 mmHg 81%
    04:00 +23°C° 0 mm 2 mps 761 mmHg 80%
    05:00 +25°C° 0 mm 3 mps 761 mmHg 80%
    06:00 +26°C° 0 mm 3 mps 761 mmHg 80%
    07:00 +27°C° 0 mm 3 mps 761 mmHg 79%
    08:00 +29°C° 0 mm 3 mps 761 mmHg 74%
    09:00 +31°C° 0 mm 3 mps 760 mmHg 69%
    10:00 +33°C° 0 mm 3 mps 760 mmHg 64%
    11:00 +34°C° 0 mm 3 mps 760 mmHg 59%
    12:00 +35°C° 0 mm 4 mps 760 mmHg 55%
    13:00 +36°C° 0 mm 4 mps 760 mmHg 51%
    14:00 +35°C° 0 mm 4 mps 760 mmHg 53%
    15:00 +35°C° 0 mm 4 mps 759 mmHg 56%
    16:00 +35°C° 0 mm 5 mps 759 mmHg 58%
    17:00 +33°C° 0.7 mm 5 mps 759 mmHg 66%
    18:00 +30°C° 0.7 mm 5 mps 759 mmHg 74%
    19:00 +27°C° 0.7 mm 6 mps 760 mmHg 82%
    20:00 +25°C° 0 mm 5 mps 760 mmHg 84%
    21:00 +23°C° 0 mm 5 mps 760 mmHg 85%
    22:00 +21°C° 0 mm 5 mps 761 mmHg 87%
    23:00 +19°C° 0 mm 5 mps 761 mmHg 87%

    Tomorrow, 27 June, Thursday

    Time Temperature Precipitation Wind Pressure Humidity
    00:00 +17°C° 0 mm 5 mps 761 mmHg 86%
    01:00 +16°C° 0 mm 6 mps 761 mmHg 86%
    02:00 +15°C° 0 mm 5 mps 761 mmHg 86%
    03:00 +14°C° 0 mm 5 mps 761 mmHg 86%
    04:00 +13°C° 0 mm 5 mps 761 mmHg 85%
    05:00 +13°C° 0 mm 5 mps 762 mmHg 82%
    06:00 +14°C° 0 mm 6 mps 762 mmHg 79%
    07:00 +14°C° 0 mm 6 mps 762 mmHg 76%
    08:00 +15°C° 0 mm 7 mps 762 mmHg 73%
    09:00 +17°C° 0 mm 7 mps 762 mmHg 71%
    10:00 +18°C° 0 mm 7 mps 762 mmHg 69%
    11:00 +20°C° 0 mm 7 mps 762 mmHg 68%
    12:00 +20°C° 0 mm 7 mps 762 mmHg 67%
    13:00 +21°C° 0 mm 7 mps 762 mmHg 66%
    14:00 +21°C° 0 mm 7 mps 762 mmHg 67%
    15:00 +21°C° 0 mm 6 mps 762 mmHg 68%
    16:00 +21°C° 0 mm 6 mps 762 mmHg 70%
    17:00 +21°C° 0 mm 5 mps 762 mmHg 73%
    18:00 +20°C° 0 mm 4 mps 761 mmHg 76%
    19:00 +20°C° 0 mm 3 mps 761 mmHg 79%
    20:00 +19°C° 0 mm 3 mps 762 mmHg 84%
    21:00 +17°C° 0 mm 3 mps 762 mmHg 88%
    22:00 +16°C° 0 mm 3 mps 763 mmHg 92%
    23:00 +16°C° 0 mm 3 mps 763 mmHg 94%

    Day after tomorrow, 28 June, Friday

    Time Temperature Precipitation Wind Pressure Humidity
    00:00 +14°C° 0 mm 3 mps 763 mmHg 95%
    01:00 +14°C° 0 mm 3 mps 762 mmHg 97%
    02:00 +14°C° 0 mm 3 mps 762 mmHg 97%
    03:00 +13°C° 0 mm 3 mps 762 mmHg 98%
    04:00 +13°C° 0 mm 3 mps 762 mmHg 98%
    05:00 +14°C° 0 mm 3 mps 762 mmHg 96%
    06:00 +16°C° 0 mm 3 mps 762 mmHg 93%
    07:00 +17°C° 0 mm 4 mps 763 mmHg 91%
    08:00 +18°C° 0 mm 4 mps 763 mmHg 80%
    09:00 +20°C° 0 mm 4 mps 763 mmHg 70%
    10:00 +22°C° 0 mm 4 mps 763 mmHg 60%
    11:00 +23°C° 0 mm 4 mps 763 mmHg 56%
    12:00 +23°C° 0 mm 4 mps 763 mmHg 52%
    13:00 +25°C° 0 mm 4 mps 763 mmHg 47%
    14:00 +25°C° 0 mm 4 mps 763 mmHg 48%
    15:00 +25°C° 0 mm 4 mps 763 mmHg 48%
    16:00 +23°C° 0 mm 4 mps 763 mmHg 48%
    17:00 +22°C° 0 mm 3 mps 763 mmHg 54%
    18:00 +21°C° 0 mm 3 mps 763 mmHg 61%
    19:00 +20°C° 0 mm 2 mps 763 mmHg 67%
    20:00 +19°C° 0 mm 2 mps 763 mmHg 70%
    21:00 +18°C° 0 mm 1 mps 763 mmHg 73%
    22:00 +15°C° 0 mm 1 mps 763 mmHg 76%
    23:00 +15°C° 0 mm 1 mps 763 mmHg 77%

    29 June, Saturday

    Time Temperature Precipitation Wind Pressure Humidity
    00:00 +13°C° 0 mm 0 mps 763 mmHg 77%
    01:00 +13°C° 0 mm 0 mps 763 mmHg 78%
    02:00 +13°C° 0 mm 0 mps 763 mmHg 77%
    03:00 +14°C° 0 mm 1 mps 763 mmHg 77%
    04:00 +13°C° 0 mm 1 mps 763 mmHg 76%
    05:00 +15°C° 0 mm 1 mps 763 mmHg 72%
    06:00 +18°C° 0 mm 1 mps 763 mmHg 69%
    07:00 +19°C° 0 mm 2 mps 763 mmHg 65%
    08:00 +20°C° 0 mm 2 mps 763 mmHg 61%
    09:00 +23°C° 0 mm 2 mps 763 mmHg 57%
    10:00 +24°C° 0 mm 3 mps 763 mmHg 53%
    11:00 +25°C° 0 mm 3 mps 762 mmHg 52%
    12:00 +26°C° 0 mm 3 mps 762 mmHg 50%
    13:00 +27°C° 0 mm 3 mps 761 mmHg 49%
    14:00 +27°C° 0 mm 3 mps 761 mmHg 48%
    15:00 +27°C° 0 mm 2 mps 761 mmHg 48%
    16:00 +28°C° 0 mm 2 mps 760 mmHg 48%
    17:00 +27°C° 0 mm 2 mps 760 mmHg 53%
    18:00 +26°C° 0 mm 1 mps 760 mmHg 57%
    19:00 +25°C° 0 mm 1 mps 760 mmHg 62%
    20:00 +24°C° 0 mm 1 mps 760 mmHg 64%
    21:00 +22°C° 0 mm 1 mps 760 mmHg 65%
    22:00 +20°C° 0 mm 1 mps 760 mmHg 66%
    23:00 +20°C° 0 mm 1 mps 760 mmHg 65%

    30 June, Sunday

    Time Temperature Precipitation Wind Pressure Humidity
    00:00 +19°C° 0 mm 2 mps 759 mmHg 64%
    01:00 +18°C° 0 mm 2 mps 759 mmHg 64%
    02:00 +18°C° 0 mm 2 mps 759 mmHg 63%
    03:00 +17°C° 0 mm 3 mps 759 mmHg 63%
    04:00 +17°C° 0 mm 3 mps 758 mmHg 62%
    05:00 +19°C° 0 mm 3 mps 758 mmHg 64%
    06:00 +20°C° 0 mm 4 mps 758 mmHg 65%
    07:00 +22°C° 0 mm 4 mps 758 mmHg 67%
    08:00 +23°C° 0 mm 5 mps 758 mmHg 63%
    09:00 +26°C° 0 mm 5 mps 757 mmHg 59%
    10:00 +28°C° 0 mm 5 mps 757 mmHg 55%
    11:00 +29°C° 0 mm 6 mps 757 mmHg 51%
    12:00 +30°C° 0 mm 6 mps 756 mmHg 48%
    13:00 +32°C° 0 mm 6 mps 756 mmHg 44%
    14:00 +33°C° 0 mm 5 mps 755 mmHg 46%
    15:00 +33°C° 0 mm 5 mps 755 mmHg 47%
    16:00 +34°C° 0 mm 4 mps 754 mmHg 48%
    17:00 +32°C° 0 mm 4 mps 754 mmHg 53%
    18:00 +29°C° 0 mm 4 mps 755 mmHg 57%
    19:00 +28°C° 0 mm 4 mps 755 mmHg 62%
    20:00 +26°C° 0 mm 4 mps 755 mmHg 67%
    21:00 +23°C° 0 mm 4 mps 755 mmHg 72%
    22:00 +22°C° 0 mm 4 mps 756 mmHg 77%
    23:00 +20°C° 0 mm 4 mps 756 mmHg 76%

    1 July, Monday

    Time Temperature Precipitation Wind Pressure Humidity
    00:00 +18°C° 0 mm 3 mps 756 mmHg 75%
    01:00 +16°C° 0 mm 3 mps 757 mmHg 75%
    02:00 +14°C° 0 mm 3 mps 757 mmHg 79%
    03:00 +13°C° 0 mm 3 mps 757 mmHg 84%
    04:00 +12°C° 0 mm 3 mps 757 mmHg 89%
    05:00 +14°C° 0 mm 3 mps 757 mmHg 86%
    06:00 +16°C° 0 mm 3 mps 757 mmHg 83%
    07:00 +17°C° 0 mm 4 mps 757 mmHg 80%
    08:00 +19°C° 0 mm 4 mps 757 mmHg 74%
    09:00 +20°C° 0 mm 4 mps 757 mmHg 68%
    10:00 +22°C° 0 mm 4 mps 757 mmHg 62%
    11:00 +23°C° 0 mm 4 mps 757 mmHg 59%
    12:00 +23°C° 0 mm 4 mps 756 mmHg 56%
    13:00 +25°C° 0 mm 4 mps 756 mmHg 53%
    14:00 +25°C° 0 mm 4 mps 756 mmHg 55%
    15:00 +25°C° 0 mm 4 mps 755 mmHg 56%
    16:00 +25°C° 0 mm 5 mps 755 mmHg 58%
    17:00 +23°C° 0.1 mm 4 mps 755 mmHg 62%
    18:00 +22°C° 0.1 mm 4 mps 754 mmHg 67%
    19:00 +21°C° 0.1 mm 4 mps 754 mmHg 72%
    20:00 +20°C° 0.2 mm 4 mps 755 mmHg 77%
    21:00 +18°C° 0.2 mm 4 mps 755 mmHg 82%
    22:00 +17°C° 0.2 mm 4 mps 755 mmHg 88%
    23:00 +14°C° 0 mm 5 mps 756 mmHg 87%
    Show more